,,Stat6,,Stat2,,Stat8,,Stat9,,Stat10,,Wind1,,Wind1,
time,status,PA1M_AVG,status,PR1M_SUM,status,RH1M_AVG,status,SR1M_AVG,status,TA1M_AVG,status,W1dAve1m,status,W1sAve1m,
2005-09-15, 00:00:00,VALID,919.649,VALID,0,VALID,100,VALID,0,VALID,19.9827,VALID,15,VALID,0.889915,
2005-09-15, 00:01:00,VALID,919.641,VALID,0,VALID,100,VALID,-0.0679233,VALID,19.9745,VALID,15,VALID,0.623958,
2005-09-15, 00:02:00,VALID,919.632,VALID,0,VALID,100,VALID,-0.0339617,VALID,19.9678,VALID,15,VALID,0.509673,
2005-09-15, 00:03:00,VALID,919.633,VALID,0,VALID,100,VALID,-0.0679233,VALID,19.9457,VALID,14,VALID,0.5242,
2005-09-15, 00:04:00,VALID,919.627,VALID,0,VALID,100,VALID,-0.0169808,VALID,19.9293,VALID,13,VALID,0.591704,
2005-09-15, 00:05:00,VALID,919.611,VALID,0,VALID,100,VALID,-0.0339617,VALID,19.9196,VALID,18,VALID,0.572545,
2005-09-15, 00:06:00,VALID,919.59,VALID,0,VALID,100,VALID,-0.0339617,VALID,19.9104,VALID,27,VALID,0.561967,
2005-09-15, 00:07:00,VALID,919.583,VALID,0,VALID,100,VALID,-0.0679233,VALID,19.9005,VALID,27,VALID,0.541193,
2005-09-15, 00:08:00,VALID,919.578,VALID,0,VALID,100,VALID,-0.0339617,VALID,19.8644,VALID,27,VALID,0.43471,
2005-09-15, 00:09:00,VALID,919.583,VALID,0,VALID,100,VALID,-0.0339617,VALID,19.8684,VALID,27,VALID,0.243096,
2005-09-15, 00:10:00,VALID,919.59,VALID,0,VALID,100,VALID,-0.0169808,VALID,19.8642,VALID,7,VALID,0.484197,
2005-09-15, 00:11:00,VALID,919.592,VALID,0,VALID,100,VALID,-0.0169808,VALID,19.8833,VALID,350,VALID,0.357031,
2005-09-15, 00:12:00,VALID,919.593,VALID,0,VALID,100,VALID,-0.0169808,VALID,19.9039,VALID,350,VALID,0.276163,
2005-09-15, 00:13:00,VALID,919.576,VALID,0,VALID,100,VALID,-0.0679233,VALID,19.9263,VALID,350,VALID,0.0182292,
2005-09-15, 00:14:00,VALID,919.575,VALID,0,VALID,100,VALID,-0.0339617,VALID,19.9328,VALID,350,VALID,0,
2005-09-15, 00:15:00,VALID,919.568,VALID,0,VALID,100,VALID,-0.0339617,VALID,19.9422,VALID,350,VALID,0.00427827,
2005-09-15, 00:16:00,VALID,919.559,VALID,0,VALID,100,VALID,-0.0169808,VALID,19.9492,VALID,350,VALID,0.128049,
2005-09-15, 00:17:00,VALID,919.555,VALID,0,VALID,100,VALID,-0.0169808,VALID,19.9355,VALID,350,VALID,0.185547,
2005-09-15, 00:18:00,VALID,919.554,VALID,0,VALID,100,VALID,0,VALID,19.939,VALID,332,VALID,0.325267,
2005-09-15, 00:19:00,VALID,919.551,VALID,0,VALID,100,VALID,-0.0339617,VALID,19.93,VALID,316,VALID,0.325586,
2005-09-15, 00:20:00,VALID,919.563,VALID,0,VALID,100,VALID,-0.0339617,VALID,19.9129,VALID,310,VALID,0.381392,
2005-09-15, 00:21:00,VALID,919.57,VALID,0,VALID,100,VALID,-0.0169808,VALID,19.9231,VALID,310,VALID,0.314631,
2005-09-15, 00:22:00,VALID,919.588,VALID,0,VALID,100,VALID,-0.0509425,VALID,19.9201,VALID,310,VALID,0.287246,
2005-09-15, 00:23:00,VALID,919.596,VALID,0,VALID,100,VALID,-0.0339617,VALID,19.9136,VALID,310,VALID,0.336496,
2005-09-15, 00:24:00,VALID,919.608,VALID,0,VALID,100,VALID,-0.0679233,VALID,19.9069,VALID,310,VALID,0.353161,
2005-09-15, 00:25:00,VALID,919.619,VALID,0,VALID,100,VALID,-0.0679233,VALID,19.9074,VALID,310,VALID,0.318132,
2005-09-15, 00:26:00,VALID,919.636,VALID,0,VALID,100,VALID,-0.0509425,VALID,19.9106,VALID,310,VALID,0.181686,
2005-09-15, 00:27:00,VALID,919.643,VALID,0,VALID,100,VALID,-0.0679233,VALID,19.9236,VALID,310,VALID,0.00190972,
2005-09-15, 00:28:00,VALID,919.643,VALID,0,VALID,100,VALID,-0.0849042,VALID,19.9236,VALID,310,VALID,0,
2005-09-15, 00:29:00,VALID,919.659,VALID,0,VALID,100,VALID,-0.0339617,VALID,19.9236,VALID,310,VALID,0,
2005-09-15, 00:30:00,VALID,919.674,VALID,0,VALID,100,VALID,-0.0509425,VALID,19.9032,VALID,310,VALID,0.0416667,
2005-09-15, 00:31:00,VALID,919.703,VALID,0,VALID,100,VALID,0.0169808,VALID,19.8927,VALID,310,VALID,0.0167411,
2005-09-15, 00:32:00,VALID,919.721,VALID,0,VALID,100,VALID,0.0679233,VALID,19.8895,VALID,310,VALID,0,
2005-09-15, 00:33:00,VALID,919.741,VALID,0,VALID,100,VALID,0.0169808,VALID,19.8831,VALID,310,VALID,0,
2005-09-15, 00:34:00,VALID,919.758,VALID,0,VALID,100,VALID,0.0509425,VALID,19.8764,VALID,310,VALID,0,
2005-09-15, 00:35:00,VALID,919.76,VALID,0,VALID,100,VALID,0.0509425,VALID,19.86,VALID,304,VALID,0.185826,
2005-09-15, 00:36:00,VALID,919.775,VALID,0,VALID,100,VALID,0.0509425,VALID,19.8605,VALID,298,VALID,0.383557,
2005-09-15, 00:37:00,VALID,919.773,VALID,0,VALID,100,VALID,0.0849042,VALID,19.851,VALID,280,VALID,0.48473,
2005-09-15, 00:38:00,VALID,919.769,VALID,0,VALID,100,VALID,0.0509425,VALID,19.8284,VALID,262,VALID,0.279447,
2005-09-15, 00:39:00,VALID,919.754,VALID,0,VALID,100,VALID,0.0509425,VALID,19.8058,VALID,262,VALID,0.0647866,
2005-09-15, 00:40:00,VALID,919.731,VALID,0,VALID,100,VALID,0,VALID,19.8157,VALID,262,VALID,0,
2005-09-15, 00:41:00,VALID,919.69,VALID,0,VALID,100,VALID,0.0169808,VALID,19.8185,VALID,262,VALID,0,
2005-09-15, 00:42:00,VALID,919.675,VALID,0,VALID,100,VALID,0.0169808,VALID,19.8157,VALID,262,VALID,0,
2005-09-15, 00:43:00,VALID,919.65,VALID,0,VALID,100,VALID,0.0679233,VALID,19.809,VALID,262,VALID,0,
2005-09-15, 00:44:00,VALID,919.637,VALID,0,VALID,100,VALID,0.0509425,VALID,19.7993,VALID,262,VALID,0,
2005-09-15, 00:45:00,VALID,919.616,VALID,0,VALID,100,VALID,0.0339617,VALID,19.7832,VALID,262,VALID,0,
2005-09-15, 00:46:00,VALID,919.605,VALID,0,VALID,100,VALID,-0.0679233,VALID,19.7782,VALID,262,VALID,0.0941311,
2005-09-15, 00:47:00,VALID,919.604,VALID,0,VALID,100,VALID,-0.0169808,VALID,19.7718,VALID,262,VALID,0.165128,
2005-09-15, 00:48:00,VALID,919.607,VALID,0,VALID,100,VALID,-0.0679233,VALID,19.7551,VALID,262,VALID,0.000381098,
2005-09-15, 00:49:00,VALID,919.616,VALID,0,VALID,100,VALID,-0.0169808,VALID,19.7551,VALID,276,VALID,0.312678,
2005-09-15, 00:50:00,VALID,919.627,VALID,0,VALID,100,VALID,-0.0339617,VALID,19.7715,VALID,278,VALID,0.264353,
2005-09-15, 00:51:00,VALID,919.643,VALID,0,VALID,100,VALID,-0.0339617,VALID,19.772,VALID,296,VALID,0.397294,
2005-09-15, 00:52:00,VALID,919.66,VALID,0,VALID,100,VALID,-0.0509425,VALID,19.7074,VALID,11,VALID,0.546693,
2005-09-15, 00:53:00,VALID,919.664,VALID,0,VALID,100,VALID,-0.0339617,VALID,19.6687,VALID,23,VALID,0.494673,
2005-09-15, 00:54:00,VALID,919.676,VALID,0,VALID,100,VALID,-0.101885,VALID,19.62,VALID,23,VALID,0.38529,
2005-09-15, 00:55:00,VALID,919.681,VALID,0,VALID,100,VALID,-0.0509425,VALID,19.5646,VALID,23,VALID,0.372713,
2005-09-15, 00:56:00,VALID,919.666,VALID,0,VALID,100,VALID,-0.0169808,VALID,19.5167,VALID,23,VALID,0.269361,
2005-09-15, 00:57:00,VALID,919.661,VALID,0,VALID,100,VALID,-0.0679233,VALID,19.4908,VALID,23,VALID,0.0987847,
2005-09-15, 00:58:00,VALID,919.662,VALID,0,VALID,100,VALID,-0.0339617,VALID,19.4811,VALID,23,VALID,0.215909,
2005-09-15, 00:59:00,VALID,919.665,VALID,0,VALID,100,VALID,-0.0679233,VALID,19.4777,VALID,23,VALID,0.225654,
2005-09-15, 01:00:00,VALID,919.674,VALID,0,VALID,100,VALID,-0.0509425,VALID,19.4777,VALID,23,VALID,0,
2005-09-15, 01:01:00,VALID,919.701,VALID,0,VALID,100,VALID,0.0679233,VALID,19.4633,VALID,23,VALID,0,
2005-09-15, 01:02:00,VALID,919.704,VALID,0,VALID,100,VALID,0.0509425,VALID,19.4667,VALID,23,VALID,0,
2005-09-15, 01:03:00,VALID,919.715,VALID,0,VALID,100,VALID,0.0339617,VALID,19.4571,VALID,23,VALID,0,
2005-09-15, 01:04:00,VALID,919.706,VALID,0,VALID,100,VALID,0.0339617,VALID,19.4638,VALID,23,VALID,0,
2005-09-15, 01:05:00,VALID,919.706,VALID,0,VALID,100,VALID,0.0509425,VALID,19.4675,VALID,23,VALID,0,
2005-09-15, 01:06:00,VALID,919.71,VALID,0,VALID,100,VALID,0.0509425,VALID,19.4667,VALID,23,VALID,0,
2005-09-15, 01:07:00,VALID,919.696,VALID,0,VALID,100,VALID,0.0169808,VALID,19.4898,VALID,23,VALID,0,
2005-09-15, 01:08:00,VALID,919.711,VALID,0,VALID,100,VALID,0.0339617,VALID,19.4762,VALID,23,VALID,0,
2005-09-15, 01:09:00,VALID,919.696,VALID,0,VALID,100,VALID,0,VALID,19.4963,VALID,23,VALID,0,
2005-09-15, 01:10:00,VALID,919.675,VALID,0,VALID,100,VALID,0.0509425,VALID,19.502,VALID,23,VALID,0,
2005-09-15, 01:11:00,VALID,919.653,VALID,0,VALID,100,VALID,0.0849042,VALID,19.4928,VALID,23,VALID,0,
2005-09-15, 01:12:00,VALID,919.62,VALID,0,VALID,100,VALID,0.0679233,VALID,19.4898,VALID,23,VALID,0,
2005-09-15, 01:13:00,VALID,919.586,VALID,0,VALID,100,VALID,0.0509425,VALID,19.4799,VALID,23,VALID,0,
2005-09-15, 01:14:00,VALID,919.582,VALID,0,VALID,100,VALID,0.0509425,VALID,19.5095,VALID,23,VALID,0,
2005-09-15, 01:15:00,VALID,919.536,VALID,0,VALID,100,VALID,0.0339617,VALID,19.5154,VALID,23,VALID,0,
2005-09-15, 01:16:00,VALID,919.54,VALID,0,VALID,100,VALID,-0.0679233,VALID,19.533,VALID,23,VALID,0,
2005-09-15, 01:17:00,VALID,919.522,VALID,0,VALID,100,VALID,-0.0849042,VALID,19.5489,VALID,23,VALID,0,
2005-09-15, 01:18:00,VALID,919.488,VALID,0,VALID,100,VALID,-0.101885,VALID,19.6014,VALID,23,VALID,0,
2005-09-15, 01:19:00,VALID,919.457,VALID,0,VALID,100,VALID,-0.101885,VALID,19.6433,VALID,23,VALID,0,
2005-09-15, 01:20:00,VALID,919.423,VALID,0,VALID,100,VALID,-0.101885,VALID,19.6334,VALID,23,VALID,0,
2005-09-15, 01:21:00,VALID,919.387,VALID,0,VALID,100,VALID,-0.0679233,VALID,19.6036,VALID,23,VALID,0,
2005-09-15, 01:22:00,VALID,919.359,VALID,0,VALID,100,VALID,-0.0849042,VALID,19.5847,VALID,23,VALID,0.0412109,
2005-09-15, 01:23:00,VALID,919.321,VALID,0,VALID,100,VALID,-0.0849042,VALID,19.5522,VALID,22,VALID,0.176339,
2005-09-15, 01:24:00,VALID,919.291,VALID,0,VALID,100,VALID,-0.0509425,VALID,19.5524,VALID,22,VALID,0,
2005-09-15, 01:25:00,VALID,919.26,VALID,0,VALID,100,VALID,-0.0849042,VALID,19.5559,VALID,22,VALID,0,
2005-09-15, 01:26:00,VALID,919.212,VALID,0,VALID,100,VALID,-0.0509425,VALID,19.4973,VALID,22,VALID,0.157617,
2005-09-15, 01:27:00,VALID,919.183,VALID,0,VALID,100,VALID,-0.0339617,VALID,19.4717,VALID,22,VALID,0.350419,
2005-09-15, 01:28:00,VALID,919.159,VALID,0,VALID,100,VALID,-0.0849042,VALID,19.4066,VALID,18,VALID,0.423874,
2005-09-15, 01:29:00,VALID,919.146,VALID,0,VALID,100,VALID,-0.0679233,VALID,19.3972,VALID,9,VALID,0.579993,
2005-09-15, 01:30:00,VALID,919.133,VALID,0,VALID,100,VALID,-0.0509425,VALID,19.3977,VALID,9,VALID,0.544567,
2005-09-15, 01:31:00,VALID,919.135,VALID,0,VALID,100,VALID,-0.0339617,VALID,19.3808,VALID,11,VALID,0.65696,
2005-09-15, 01:32:00,VALID,919.139,VALID,0,VALID,100,VALID,-0.0679233,VALID,19.3937,VALID,7,VALID,0.603423,
2005-09-15, 01:33:00,VALID,919.152,VALID,0,VALID,100,VALID,-0.0849042,VALID,19.4131,VALID,356,VALID,0.549964,
2005-09-15, 01:34:00,VALID,919.144,VALID,0,VALID,100,VALID,-0.0339617,VALID,19.4389,VALID,1,VALID,1.03776,
2005-09-15, 01:35:00,VALID,919.149,VALID,0,VALID,100,VALID,-0.0169808,VALID,19.4878,VALID,7,VALID,0.727471,
2005-09-15, 01:36:00,VALID,919.158,VALID,0,VALID,100,VALID,-0.0509425,VALID,19.5077,VALID,321,VALID,0.679883,
2005-09-15, 01:37:00,VALID,919.153,VALID,0,VALID,100,VALID,-0.0339617,VALID,19.5169,VALID,331,VALID,0.402344,
2005-09-15, 01:38:00,VALID,919.15,VALID,0,VALID,100,VALID,-0.0509425,VALID,19.5134,VALID,347,VALID,0.616832,
2005-09-15, 01:39:00,VALID,919.149,VALID,0,VALID,100,VALID,-0.0679233,VALID,19.5231,VALID,331,VALID,0.391927,
2005-09-15, 01:40:00,VALID,919.145,VALID,0,VALID,100,VALID,-0.0509425,VALID,19.5229,VALID,357,VALID,0.497159,
2005-09-15, 01:41:00,VALID,919.149,VALID,0,VALID,100,VALID,-0.0509425,VALID,19.5229,VALID,348,VALID,0.496366,
2005-09-15, 01:42:00,VALID,919.122,VALID,0,VALID,100,VALID,-0.0679233,VALID,19.5201,VALID,314,VALID,0.55692,
2005-09-15, 01:43:00,VALID,919.112,VALID,0,VALID,100,VALID,-0.0509425,VALID,19.5199,VALID,332,VALID,0.502378,
2005-09-15, 01:44:00,VALID,919.103,VALID,0,VALID,100,VALID,-0.0509425,VALID,19.5236,VALID,355,VALID,0.51048,
2005-09-15, 01:45:00,VALID,919.076,VALID,0,VALID,100,VALID,-0.0849042,VALID,19.5393,VALID,15,VALID,0.767299,
2005-09-15, 01:46:00,VALID,919.105,VALID,0,VALID,100,VALID,0.0169808,VALID,19.541,VALID,22,VALID,0.973737,
2005-09-15, 01:47:00,VALID,919.12,VALID,0,VALID,100,VALID,0.0169808,VALID,19.5249,VALID,12,VALID,0.815278,
2005-09-15, 01:48:00,VALID,919.141,VALID,0,VALID,100,VALID,0,VALID,19.5092,VALID,10,VALID,0.606707,
2005-09-15, 01:49:00,VALID,919.161,VALID,0,VALID,100,VALID,0,VALID,19.4866,VALID,14,VALID,0.495536,
2005-09-15, 01:50:00,VALID,919.172,VALID,0,VALID,100,VALID,0,VALID,19.4476,VALID,8,VALID,0.331101,
2005-09-15, 01:51:00,VALID,919.157,VALID,0,VALID,100,VALID,-0.0169808,VALID,19.4608,VALID,8,VALID,0.411399,
2005-09-15, 01:52:00,VALID,919.164,VALID,0,VALID,100,VALID,-0.0339617,VALID,19.425,VALID,8,VALID,0.426639,
2005-09-15, 01:53:00,VALID,919.122,VALID,0,VALID,100,VALID,0,VALID,19.4186,VALID,8,VALID,0.644903,
2005-09-15, 01:54:00,VALID,919.105,VALID,0,VALID,100,VALID,-0.0169808,VALID,19.3994,VALID,8,VALID,0.613636,
2005-09-15, 01:55:00,VALID,919.075,VALID,0,VALID,100,VALID,0,VALID,19.3895,VALID,8,VALID,0.650254,
2005-09-15, 01:56:00,VALID,919.06,VALID,0,VALID,100,VALID,0,VALID,19.393,VALID,7,VALID,0.541159,
2005-09-15, 01:57:00,VALID,919.045,VALID,0,VALID,100,VALID,-0.0169808,VALID,19.3865,VALID,355,VALID,0.752056,
2005-09-15, 01:58:00,VALID,919.033,VALID,0,VALID,100,VALID,0,VALID,19.3766,VALID,350,VALID,0.894804,
2005-09-15, 01:59:00,VALID,919.009,VALID,0,VALID,100,VALID,-0.0169808,VALID,19.3738,VALID,338,VALID,0.754464,
2005-09-15, 02:00:00,VALID,918.998,VALID,0,VALID,100,VALID,-0.0169808,VALID,19.3607,VALID,334,VALID,0.500191,
2005-09-15, 02:01:00,VALID,919,VALID,0,VALID,100,VALID,-0.101885,VALID,19.3589,VALID,331,VALID,0.384943,
2005-09-15, 02:02:00,VALID,918.987,VALID,0,VALID,100,VALID,-0.101885,VALID,19.3723,VALID,344,VALID,0.59096,
2005-09-15, 02:03:00,VALID,918.986,VALID,0,VALID,100,VALID,-0.0849042,VALID,19.3453,VALID,344,VALID,0.771341,
2005-09-15, 02:04:00,VALID,918.968,VALID,0,VALID,100,VALID,-0.101885,VALID,19.3269,VALID,351,VALID,0.616848,
2005-09-15, 02:05:00,VALID,918.964,VALID,0,VALID,100,VALID,-0.118866,VALID,19.3204,VALID,343,VALID,0.570126,
2005-09-15, 02:06:00,VALID,918.958,VALID,0,VALID,100,VALID,-0.101885,VALID,19.3274,VALID,339,VALID,0.382813,
2005-09-15, 02:07:00,VALID,918.964,VALID,0,VALID,100,VALID,-0.101885,VALID,19.3269,VALID,338,VALID,0.274926,
2005-09-15, 02:08:00,VALID,918.953,VALID,0,VALID,100,VALID,-0.101885,VALID,19.3366,VALID,338,VALID,0.409598,
2005-09-15, 02:09:00,VALID,918.939,VALID,0,VALID,100,VALID,-0.101885,VALID,19.34,VALID,333,VALID,0.499637,
2005-09-15, 02:10:00,VALID,918.915,VALID,0,VALID,100,VALID,-0.101885,VALID,19.3328,VALID,321,VALID,0.377858,
2005-09-15, 02:11:00,VALID,918.91,VALID,0,VALID,100,VALID,-0.101885,VALID,19.3361,VALID,321,VALID,0.0479911,
2005-09-15, 02:12:00,VALID,918.917,VALID,0,VALID,100,VALID,-0.101885,VALID,19.346,VALID,321,VALID,0,
2005-09-15, 02:13:00,VALID,918.908,VALID,0,VALID,100,VALID,-0.101885,VALID,19.3525,VALID,321,VALID,0,
2005-09-15, 02:14:00,VALID,918.911,VALID,0,VALID,100,VALID,-0.101885,VALID,19.3557,VALID,321,VALID,0,
2005-09-15, 02:15:00,VALID,918.936,VALID,0,VALID,100,VALID,-0.0849042,VALID,19.3552,VALID,321,VALID,0,
2005-09-15, 02:16:00,VALID,918.936,VALID,0,VALID,100,VALID,0.0169808,VALID,19.3771,VALID,321,VALID,0,
2005-09-15, 02:17:00,VALID,918.934,VALID,0,VALID,100,VALID,0.0339617,VALID,19.3674,VALID,348,VALID,0.517857,
2005-09-15, 02:18:00,VALID,918.923,VALID,0,VALID,100,VALID,0,VALID,19.354,VALID,13,VALID,0.542882,
2005-09-15, 02:19:00,VALID,918.914,VALID,0,VALID,100,VALID,0,VALID,19.3577,VALID,18,VALID,0.813045,
2005-09-15, 02:20:00,VALID,918.871,VALID,0,VALID,100,VALID,0,VALID,19.351,VALID,18,VALID,0.705669,
2005-09-15, 02:21:00,VALID,918.864,VALID,0,VALID,100,VALID,0.0339617,VALID,19.354,VALID,360,VALID,0.595806,
2005-09-15, 02:22:00,VALID,918.862,VALID,0,VALID,100,VALID,0.0169808,VALID,19.3383,VALID,329,VALID,0.768466,
2005-09-15, 02:23:00,VALID,918.86,VALID,0,VALID,100,VALID,0,VALID,19.3187,VALID,327,VALID,0.453869,
2005-09-15, 02:24:00,VALID,918.849,VALID,0,VALID,100,VALID,0,VALID,19.3289,VALID,351,VALID,0.329459,
2005-09-15, 02:25:00,VALID,918.853,VALID,0,VALID,100,VALID,0.0169808,VALID,19.3155,VALID,340,VALID,0.119093,
2005-09-15, 02:26:00,VALID,918.825,VALID,0,VALID,100,VALID,0,VALID,19.3319,VALID,339,VALID,0.0195313,
2005-09-15, 02:27:00,VALID,918.819,VALID,0,VALID,100,VALID,0.0169808,VALID,19.3383,VALID,341,VALID,0.089681,
2005-09-15, 02:28:00,VALID,918.825,VALID,0,VALID,100,VALID,0.0169808,VALID,19.3579,VALID,8,VALID,0.560369,
2005-09-15, 02:29:00,VALID,918.819,VALID,0,VALID,100,VALID,0,VALID,19.3711,VALID,13,VALID,0.53404,
2005-09-15, 02:30:00,VALID,918.809,VALID,0,VALID,100,VALID,0,VALID,19.3575,VALID,13,VALID,0.448219,
2005-09-15, 02:31:00,VALID,918.807,VALID,0,VALID,100,VALID,0,VALID,19.3575,VALID,345,VALID,0.787674,
2005-09-15, 02:32:00,VALID,918.814,VALID,0,VALID,100,VALID,0,VALID,19.3351,VALID,10,VALID,0.582589,
2005-09-15, 02:33:00,VALID,918.831,VALID,0,VALID,100,VALID,0,VALID,19.2963,VALID,346,VALID,0.618576,
2005-09-15, 02:34:00,VALID,918.836,VALID,0,VALID,100,VALID,0,VALID,19.2966,VALID,358,VALID,0.30202,
2005-09-15, 02:35:00,VALID,918.827,VALID,0,VALID,100,VALID,0.0169808,VALID,19.2963,VALID,358,VALID,0.308594,
2005-09-15, 02:36:00,VALID,918.826,VALID,0,VALID,100,VALID,0,VALID,19.2834,VALID,358,VALID,0.175586,
2005-09-15, 02:37:00,VALID,918.82,VALID,0,VALID,100,VALID,0,VALID,19.2966,VALID,358,VALID,0.00111607,
2005-09-15, 02:38:00,VALID,918.804,VALID,0,VALID,100,VALID,0.0169808,VALID,19.2926,VALID,358,VALID,0,
2005-09-15, 02:39:00,VALID,918.794,VALID,0,VALID,100,VALID,0.0169808,VALID,19.3063,VALID,358,VALID,0,
2005-09-15, 02:40:00,VALID,918.779,VALID,0,VALID,100,VALID,0,VALID,19.3162,VALID,358,VALID,0,
2005-09-15, 02:41:00,VALID,918.765,VALID,0,VALID,100,VALID,0.0169808,VALID,19.3023,VALID,358,VALID,0.28125,
2005-09-15, 02:42:00,VALID,918.749,VALID,0,VALID,100,VALID,-0.0169808,VALID,19.2998,VALID,358,VALID,0.237142,
2005-09-15, 02:43:00,VALID,918.724,VALID,0,VALID,100,VALID,0,VALID,19.2931,VALID,358,VALID,0.200174,
2005-09-15, 02:44:00,VALID,918.69,VALID,0,VALID,100,VALID,0,VALID,19.2867,VALID,358,VALID,0.125363,
2005-09-15, 02:45:00,VALID,918.658,VALID,0,VALID,100,VALID,0.0169808,VALID,19.2934,VALID,358,VALID,0.0625,
2005-09-15, 02:46:00,VALID,918.663,VALID,0,VALID,100,VALID,0.0169808,VALID,19.2892,VALID,358,VALID,0,
2005-09-15, 02:47:00,VALID,918.654,VALID,0,VALID,100,VALID,0.0339617,VALID,19.2929,VALID,358,VALID,0.014027,
2005-09-15, 02:48:00,VALID,918.654,VALID,0,VALID,100,VALID,0.0339617,VALID,19.2991,VALID,358,VALID,0.00234375,
2005-09-15, 02:49:00,VALID,918.651,VALID,0,VALID,100,VALID,0.0679233,VALID,19.2991,VALID,358,VALID,0.00342988,
2005-09-15, 02:50:00,VALID,918.646,VALID,0,VALID,100,VALID,0.0679233,VALID,19.2892,VALID,358,VALID,0,
2005-09-15, 02:51:00,VALID,918.65,VALID,0,VALID,100,VALID,0.0509425,VALID,19.2797,VALID,358,VALID,0.0279018,
2005-09-15, 02:52:00,VALID,918.63,VALID,0,VALID,100,VALID,0.0509425,VALID,19.2668,VALID,358,VALID,0.274528,
2005-09-15, 02:53:00,VALID,918.63,VALID,0,VALID,100,VALID,0.0509425,VALID,19.2477,VALID,358,VALID,0.36109,
2005-09-15, 02:54:00,VALID,918.619,VALID,0,VALID,100,VALID,0.0509425,VALID,19.2114,VALID,2,VALID,0.545015,
2005-09-15, 02:55:00,VALID,918.606,VALID,0,VALID,100,VALID,0.0339617,VALID,19.1796,VALID,19,VALID,0.534702,
2005-09-15, 02:56:00,VALID,918.576,VALID,0,VALID,100,VALID,0.0169808,VALID,19.1799,VALID,21,VALID,0.560865,
2005-09-15, 02:57:00,VALID,918.573,VALID,0,VALID,100,VALID,0.0339617,VALID,19.1734,VALID,31,VALID,0.635417,
2005-09-15, 02:58:00,VALID,918.561,VALID,0,VALID,100,VALID,0.0169808,VALID,19.167,VALID,22,VALID,0.343205,
2005-09-15, 02:59:00,VALID,918.539,VALID,0,VALID,100,VALID,0.0509425,VALID,19.1543,VALID,22,VALID,0,
2005-09-15, 03:00:00,VALID,918.517,VALID,0,VALID,100,VALID,0,VALID,19.1409,VALID,22,VALID,0,
2005-09-15, 03:01:00,VALID,918.469,VALID,0,VALID,100,VALID,0.0169808,VALID,19.161,VALID,22,VALID,0.0508721,
2005-09-15, 03:02:00,VALID,918.428,VALID,0,VALID,100,VALID,0.0169808,VALID,19.1376,VALID,22,VALID,0.462695,
2005-09-15, 03:03:00,VALID,918.386,VALID,0,VALID,100,VALID,0.0169808,VALID,19.1314,VALID,22,VALID,0.636814,
2005-09-15, 03:04:00,VALID,918.354,VALID,0,VALID,99.9878,VALID,0.0169808,VALID,19.1188,VALID,17,VALID,0.935632,
2005-09-15, 03:05:00,VALID,918.331,VALID,0,VALID,99.7981,VALID,0.0339617,VALID,19.1093,VALID,13,VALID,1.09337,
2005-09-15, 03:06:00,VALID,918.309,VALID,0,VALID,99.5946,VALID,0.0169808,VALID,19.1188,VALID,8,VALID,0.707386,
2005-09-15, 03:07:00,VALID,918.291,VALID,0,VALID,99.4268,VALID,-0.0169808,VALID,19.1188,VALID,4,VALID,0.515625,
2005-09-15, 03:08:00,VALID,918.258,VALID,0,VALID,99.3021,VALID,0,VALID,19.122,VALID,4,VALID,0.621003,
2005-09-15, 03:09:00,VALID,918.225,VALID,0,VALID,99.0516,VALID,0.0339617,VALID,19.1376,VALID,4,VALID,0.679492,
2005-09-15, 03:10:00,VALID,918.203,VALID,0,VALID,98.7922,VALID,0.0169808,VALID,19.154,VALID,4,VALID,0.432173,
2005-09-15, 03:11:00,VALID,918.212,VALID,0,VALID,98.6765,VALID,0.0509425,VALID,19.1732,VALID,7,VALID,0.498884,
2005-09-15, 03:12:00,VALID,918.229,VALID,0,VALID,98.5532,VALID,0.0339617,VALID,19.1898,VALID,17,VALID,0.350074,
2005-09-15, 03:13:00,VALID,918.24,VALID,0,VALID,98.2531,VALID,0.0339617,VALID,19.1806,VALID,31,VALID,0.606712,
2005-09-15, 03:14:00,VALID,918.238,VALID,0,VALID,98.0255,VALID,0.0509425,VALID,19.1473,VALID,27,VALID,0.456845,
2005-09-15, 03:15:00,VALID,918.239,VALID,0,VALID,98.028,VALID,0.0339617,VALID,19.1582,VALID,26,VALID,0.179869,
2005-09-15, 03:16:00,VALID,918.231,VALID,0,VALID,98.0229,VALID,-0.0509425,VALID,19.1453,VALID,31,VALID,0.493608,
2005-09-15, 03:17:00,VALID,918.196,VALID,0,VALID,97.9059,VALID,-0.0679233,VALID,19.1818,VALID,41,VALID,0.803385,
2005-09-15, 03:18:00,VALID,918.179,VALID,0,VALID,97.7101,VALID,-0.0509425,VALID,19.1979,VALID,33,VALID,0.434837,
2005-09-15, 03:19:00,VALID,918.144,VALID,0,VALID,97.5791,VALID,-0.0679233,VALID,19.1848,VALID,33,VALID,0.414825,
2005-09-15, 03:20:00,VALID,918.124,VALID,0,VALID,97.6872,VALID,-0.0509425,VALID,19.1721,VALID,33,VALID,0.266927,
2005-09-15, 03:21:00,VALID,918.092,VALID,0,VALID,97.7775,VALID,-0.0339617,VALID,19.1719,VALID,33,VALID,0.0053267,
2005-09-15, 03:22:00,VALID,918.089,VALID,0,VALID,97.8258,VALID,-0.0509425,VALID,19.1753,VALID,33,VALID,0,
2005-09-15, 03:23:00,VALID,918.096,VALID,0,VALID,97.8271,VALID,-0.0849042,VALID,19.1749,VALID,33,VALID,0,
2005-09-15, 03:24:00,VALID,918.111,VALID,0,VALID,97.8195,VALID,-0.101885,VALID,19.1915,VALID,33,VALID,0,
2005-09-15, 03:25:00,VALID,918.123,VALID,0,VALID,97.7966,VALID,-0.0849042,VALID,19.188,VALID,33,VALID,0,
2005-09-15, 03:26:00,VALID,918.136,VALID,0,VALID,97.7762,VALID,-0.0509425,VALID,19.1778,VALID,33,VALID,0,
2005-09-15, 03:27:00,VALID,918.141,VALID,0,VALID,97.7571,VALID,-0.0509425,VALID,19.2014,VALID,33,VALID,0.0748047,
2005-09-15, 03:28:00,VALID,918.142,VALID,0,VALID,97.7737,VALID,-0.0849042,VALID,19.1977,VALID,33,VALID,0,
2005-09-15, 03:29:00,VALID,918.158,VALID,0,VALID,97.7648,VALID,-0.0849042,VALID,19.2233,VALID,33,VALID,0.00106534,
2005-09-15, 03:30:00,VALID,918.157,VALID,0,VALID,97.616,VALID,-0.101885,VALID,19.2235,VALID,33,VALID,0.00639205,
2005-09-15, 03:31:00,VALID,918.146,VALID,0,VALID,97.6249,VALID,0.0509425,VALID,19.1925,VALID,20,VALID,0.331055,
2005-09-15, 03:32:00,VALID,918.168,VALID,0,VALID,97.8462,VALID,0.0169808,VALID,19.1736,VALID,19,VALID,0.228711,
2005-09-15, 03:33:00,VALID,918.182,VALID,0,VALID,97.9644,VALID,0,VALID,19.151,VALID,19,VALID,0.119141,
2005-09-15, 03:34:00,VALID,918.198,VALID,0,VALID,97.8512,VALID,0.0509425,VALID,19.1183,VALID,19,VALID,0.0324929,
2005-09-15, 03:35:00,VALID,918.22,VALID,0,VALID,97.6643,VALID,0,VALID,19.0837,VALID,19,VALID,0,
2005-09-15, 03:36:00,VALID,918.241,VALID,0,VALID,97.9581,VALID,0.0169808,VALID,19.0547,VALID,19,VALID,0,
2005-09-15, 03:37:00,VALID,918.255,VALID,0,VALID,98.192,VALID,0.0169808,VALID,19.0351,VALID,19,VALID,0,
2005-09-15, 03:38:00,VALID,918.289,VALID,0,VALID,98.3167,VALID,0,VALID,19.0092,VALID,19,VALID,0,
2005-09-15, 03:39:00,VALID,918.32,VALID,0,VALID,98.5036,VALID,0.0169808,VALID,18.9832,VALID,19,VALID,0.0531631,
2005-09-15, 03:40:00,VALID,918.329,VALID,0,VALID,98.66,VALID,0.0509425,VALID,18.9571,VALID,19,VALID,0,
2005-09-15, 03:41:00,VALID,918.334,VALID,0,VALID,98.7579,VALID,0.0339617,VALID,18.9479,VALID,19,VALID,0.0321801,